Terminal Aerodrome Forecast
Issued by NWS Grand Forks, ND

Home | Current Version | Previous Version | Text Only | Print | Product List | Glossary Off
Versions: 1 2 3 4 5 6 7 8 9 10 11 12 13 14

000
FTUS43 KFGF 141400 AAB
TAFGFK
TAF AMD
KGFK 141405Z 1414/1512 VRB05KT P6SM BKN050
      TEMPO 1414/1415 3SM -SN BKN030
     FM141500 35012KT P6SM SCT050
     FM141700 35016G23KT P6SM BKN050
     FM142200 35012KT P6SM SCT050
     FM150300 VRB06KT P6SM SCT250=

USA.gov is the U.S. government's official web portal to all federal, state and local government web resources and services.